Retour au catalogue

STARLINK-37264

ActifCommunicationsSSO
NORAD 68729·PAYLOAD·🇺🇸 United States

Lancé Apr 15, 2026 depuis Vandenberg Space Force Base

Loading…

Prochains Passages (prochaines 24 heures)

TLE

FraisSource: CelesTrak SupGP

Époque: Sep 15, 2026, 04:10 UTC

1 68729C 26082B   26258.17409722 -.00024856  00000+0 -77132-3 0  2582
2 68729  97.2851 120.3464 0002073  94.4884 344.0843 15.33461414    14

Suivez STARLINK-37264 en temps réel avec AllMySat

Download on the App Store